Time,TemperatureF,DewpointF,PressureIn,WindDirection,WindDirectionDegrees,WindSpeedMPH,WindSpeedGustMPH,Humidity,HourlyPrecipIn,Conditions,Clouds,dailyrainin,SoftwareType,DateUTC
2013-05-23 00:01:00,66.6,65.1,29.86,ENE,63,0.0,0.0,95,0.00,,,0.00,VWS V14.01,2013-05-23 04:01:00,
2013-05-23 00:02:00,66.6,65.1,29.86,ENE,63,0.0,0.0,95,0.00,,,0.00,VWS V14.01,2013-05-23 04:02:00,
2013-05-23 00:03:00,66.5,65.0,29.86,ENE,63,0.0,0.0,95,0.00,,,0.00,VWS V14.01,2013-05-23 04:03:00,
2013-05-23 00:08:00,66.4,64.9,29.86,ENE,63,0.0,0.0,95,0.00,,,0.00,VWS V14.01,2013-05-23 04:08:00,
2013-05-23 00:13:00,66.3,64.8,29.86,ENE,63,0.0,0.0,95,0.00,,,0.00,VWS V14.01,2013-05-23 04:13:00,
2013-05-23 00:18:00,66.2,64.7,29.86,ENE,63,0.0,0.0,95,0.00,,,0.00,VWS V14.01,2013-05-23 04:18:00,
2013-05-23 00:23:00,66.1,64.6,29.86,ENE,63,0.0,0.0,95,0.00,,,0.00,VWS V14.01,2013-05-23 04:23:00,
2013-05-23 00:28:00,66.0,64.8,29.86,ENE,63,0.0,0.0,96,0.00,,,0.00,VWS V14.01,2013-05-23 04:28:00,
2013-05-23 00:33:00,66.0,64.8,29.86,ENE,63,0.0,0.0,96,0.00,,,0.00,VWS V14.01,2013-05-23 04:33:00,
2013-05-23 00:38:00,65.9,64.7,29.86,ENE,63,0.0,0.0,96,0.00,,,0.00,VWS V14.01,2013-05-23 04:38:00,
2013-05-23 00:44:00,65.9,64.7,29.86,ENE,63,0.0,0.0,96,0.00,,,0.00,VWS V14.01,2013-05-23 04:44:00,
2013-05-23 00:49:00,65.9,64.7,29.86,ENE,63,0.0,0.0,96,0.00,,,0.00,VWS V14.01,2013-05-23 04:49:00,
2013-05-23 00:54:00,65.7,64.5,29.86,ENE,63,0.0,0.0,96,0.00,,,0.00,VWS V14.01,2013-05-23 04:54:00,
2013-05-23 00:59:00,65.5,64.3,29.86,ENE,63,0.0,0.0,96,0.00,,,0.00,VWS V14.01,2013-05-23 04:59:00,
2013-05-23 01:04:00,65.4,64.2,29.86,ENE,63,0.0,0.0,96,0.00,,,0.00,VWS V14.01,2013-05-23 05:04:00,
2013-05-23 01:09:00,65.2,64.0,29.86,ENE,63,0.0,0.0,96,0.00,,,0.00,VWS V14.01,2013-05-23 05:09:00,
2013-05-23 01:14:00,65.1,63.9,29.85,ENE,63,0.0,0.0,96,0.00,,,0.00,VWS V14.01,2013-05-23 05:14:00,
2013-05-23 01:19:00,64.9,63.7,29.85,ENE,63,0.0,0.0,96,0.00,,,0.00,VWS V14.01,2013-05-23 05:19:00,
2013-05-23 01:24:00,64.7,63.5,29.85,ENE,63,0.0,0.0,96,0.00,,,0.00,VWS V14.01,2013-05-23 05:24:00,
2013-05-23 01:30:00,64.5,63.3,29.85,ENE,63,0.0,0.0,96,0.00,,,0.00,VWS V14.01,2013-05-23 05:30:00,
2013-05-23 01:35:00,64.4,63.2,29.85,ENE,63,0.0,0.0,96,0.00,,,0.00,VWS V14.01,2013-05-23 05:35:00,
2013-05-23 01:40:00,64.2,63.0,29.85,ENE,63,0.0,0.0,96,0.00,,,0.00,VWS V14.01,2013-05-23 05:40:00,
2013-05-23 01:45:00,64.1,62.9,29.84,ENE,63,0.0,0.0,96,0.00,,,0.00,VWS V14.01,2013-05-23 05:45:00,
2013-05-23 01:50:00,64.1,63.2,29.84,ENE,64,0.0,0.0,97,0.00,,,0.00,VWS V14.01,2013-05-23 05:50:00,
2013-05-23 01:55:00,64.1,63.2,29.84,ENE,63,0.0,0.0,97,0.00,,,0.00,VWS V14.01,2013-05-23 05:55:00,
2013-05-23 02:00:00,63.9,63.0,29.84,ENE,63,0.0,0.0,97,0.00,,,0.00,VWS V14.01,2013-05-23 06:00:00,
2013-05-23 02:05:00,63.8,62.9,29.83,ENE,63,0.0,0.0,97,0.00,,,0.00,VWS V14.01,2013-05-23 06:05:00,
2013-05-23 02:11:00,63.6,62.7,29.83,ENE,63,0.0,0.0,97,0.00,,,0.00,VWS V14.01,2013-05-23 06:11:00,
2013-05-23 02:16:00,63.5,62.6,29.83,ENE,63,0.0,0.0,97,0.00,,,0.00,VWS V14.01,2013-05-23 06:16:00,
2013-05-23 02:21:00,63.4,62.5,29.83,ENE,63,0.0,0.0,97,0.00,,,0.00,VWS V14.01,2013-05-23 06:21:00,
2013-05-23 02:26:00,63.4,62.8,29.83,ENE,63,0.0,0.0,98,0.00,,,0.00,VWS V14.01,2013-05-23 06:26:00,
2013-05-23 02:31:00,63.5,62.9,29.83,ENE,63,0.0,0.0,98,0.00,,,0.00,VWS V14.01,2013-05-23 06:31:00,
2013-05-23 02:36:00,63.6,63.0,29.83,ENE,63,0.0,0.0,98,0.00,,,0.00,VWS V14.01,2013-05-23 06:36:00,
2013-05-23 02:41:00,63.6,63.0,29.83,ENE,63,0.0,0.0,98,0.00,,,0.00,VWS V14.01,2013-05-23 06:41:00,
2013-05-23 02:46:00,63.9,63.3,29.83,ENE,63,0.0,0.0,98,0.00,,,0.00,VWS V14.01,2013-05-23 06:46:00,
2013-05-23 02:52:00,64.1,63.5,29.83,ENE,63,0.0,0.0,98,0.00,,,0.00,VWS V14.01,2013-05-23 06:52:00,
2013-05-23 02:57:00,64.2,63.9,29.83,ENE,63,0.0,0.0,99,0.00,,,0.00,VWS V14.01,2013-05-23 06:57:00,
2013-05-23 03:02:00,64.3,64.0,29.83,ENE,63,0.0,0.0,99,0.00,,,0.00,VWS V14.01,2013-05-23 07:02:00,
2013-05-23 03:07:00,64.4,64.1,29.83,ENE,63,0.0,0.0,99,0.00,,,0.00,VWS V14.01,2013-05-23 07:07:00,
2013-05-23 03:12:00,64.4,63.8,29.82,ENE,63,0.0,0.0,98,0.00,,,0.00,VWS V14.01,2013-05-23 07:12:00,
2013-05-23 03:17:00,64.5,63.9,29.82,ENE,63,0.0,0.0,98,0.00,,,0.00,VWS V14.01,2013-05-23 07:17:00,
2013-05-23 03:22:00,64.5,63.9,29.83,ENE,63,0.0,0.0,98,0.00,,,0.00,VWS V14.01,2013-05-23 07:22:00,
2013-05-23 03:27:00,64.5,63.9,29.83,ENE,63,0.0,0.0,98,0.00,,,0.00,VWS V14.01,2013-05-23 07:27:00,
2013-05-23 03:32:00,64.6,64.0,29.83,ENE,63,0.0,0.0,98,0.00,,,0.00,VWS V14.01,2013-05-23 07:32:00,
2013-05-23 03:37:00,64.7,64.1,29.83,ENE,63,0.0,0.0,98,0.00,,,0.00,VWS V14.01,2013-05-23 07:37:00,
2013-05-23 03:43:00,64.8,64.5,29.83,ENE,63,0.0,0.0,99,0.00,,,0.00,VWS V14.01,2013-05-23 07:43:00,
2013-05-23 03:48:00,64.9,64.6,29.83,ENE,63,0.0,0.0,99,0.00,,,0.00,VWS V14.01,2013-05-23 07:48:00,
2013-05-23 03:53:00,64.9,64.6,29.83,ENE,63,0.0,0.0,99,0.00,,,0.00,VWS V14.01,2013-05-23 07:53:00,
2013-05-23 03:58:00,64.9,64.6,29.83,ENE,63,0.0,0.0,99,0.00,,,0.00,VWS V14.01,2013-05-23 07:58:00,
2013-05-23 04:03:00,64.9,64.6,29.83,ENE,63,0.0,0.0,99,0.00,,,0.00,VWS V14.01,2013-05-23 08:03:00,
2013-05-23 04:08:00,65.0,64.7,29.83,ENE,63,0.0,0.0,99,0.00,,,0.00,VWS V14.01,2013-05-23 08:08:00,
2013-05-23 04:13:00,65.0,64.7,29.84,ENE,63,0.0,0.0,99,0.00,,,0.00,VWS V14.01,2013-05-23 08:13:00,
2013-05-23 04:19:00,65.1,64.8,29.83,ENE,63,0.0,0.0,99,0.00,,,0.00,VWS V14.01,2013-05-23 08:19:00,
2013-05-23 04:24:00,65.1,64.8,29.83,ENE,63,0.0,1.0,99,0.00,,,0.00,VWS V14.01,2013-05-23 08:24:00,
2013-05-23 04:29:00,65.2,64.9,29.83,ENE,63,0.0,1.0,99,0.00,,,0.00,VWS V14.01,2013-05-23 08:29:00,
2013-05-23 04:34:00,65.2,64.9,29.84,ENE,63,0.0,0.0,99,0.00,,,0.00,VWS V14.01,2013-05-23 08:34:00,
2013-05-23 04:39:00,65.2,64.9,29.83,ENE,63,0.0,0.0,99,0.00,,,0.00,VWS V14.01,2013-05-23 08:39:00,
2013-05-23 04:44:00,65.3,65.0,29.83,ENE,63,0.0,0.0,99,0.00,,,0.00,VWS V14.01,2013-05-23 08:44:00,
2013-05-23 04:49:00,65.3,65.0,29.83,ENE,63,0.0,0.0,99,0.00,,,0.00,VWS V14.01,2013-05-23 08:49:00,
2013-05-23 04:54:00,65.2,64.9,29.83,ENE,63,0.0,0.0,99,0.00,,,0.00,VWS V14.01,2013-05-23 08:54:00,
2013-05-23 05:00:00,65.3,65.0,29.83,ENE,63,0.0,0.0,99,0.00,,,0.00,VWS V14.01,2013-05-23 09:00:00,
2013-05-23 05:05:00,65.3,65.0,29.83,ENE,63,0.0,0.0,99,0.00,,,0.00,VWS V14.01,2013-05-23 09:05:00,
2013-05-23 05:10:00,65.4,65.1,29.83,ENE,63,0.0,0.0,99,0.00,,,0.00,VWS V14.01,2013-05-23 09:10:00,
2013-05-23 05:15:00,65.5,65.2,29.83,ENE,63,0.0,0.0,99,0.00,,,0.00,VWS V14.01,2013-05-23 09:15:00,
2013-05-23 05:20:00,65.5,65.2,29.83,West,273,0.0,0.0,99,0.00,,,0.00,VWS V14.01,2013-05-23 09:20:00,
2013-05-23 05:25:00,65.5,65.2,29.83,West,273,0.0,0.0,99,0.00,,,0.00,VWS V14.01,2013-05-23 09:25:00,
2013-05-23 05:30:00,65.5,65.2,29.83,West,273,0.0,0.0,99,0.00,,,0.00,VWS V14.01,2013-05-23 09:30:00,
2013-05-23 05:35:00,65.5,65.2,29.83,ENE,61,0.0,0.0,99,0.00,,,0.00,VWS V14.01,2013-05-23 09:35:00,
2013-05-23 05:40:00,65.5,65.2,29.83,ENE,61,0.0,0.0,99,0.00,,,0.00,VWS V14.01,2013-05-23 09:40:00,
2013-05-23 05:46:00,65.6,65.3,29.84,ENE,61,0.0,0.0,99,0.00,,,0.00,VWS V14.01,2013-05-23 09:46:00,
2013-05-23 05:51:00,65.6,65.3,29.84,ENE,61,0.0,0.0,99,0.00,,,0.00,VWS V14.01,2013-05-23 09:51:00,
2013-05-23 05:56:00,65.6,65.3,29.84,ENE,61,0.0,0.0,99,0.00,,,0.00,VWS V14.01,2013-05-23 09:56:00,
2013-05-23 06:01:00,65.6,65.3,29.84,ENE,61,0.0,0.0,99,0.00,,,0.00,VWS V14.01,2013-05-23 10:01:00,
2013-05-23 06:06:00,65.7,65.4,29.84,ENE,61,0.0,0.0,99,0.00,,,0.00,VWS V14.01,2013-05-23 10:06:00,
2013-05-23 06:11:00,65.8,65.5,29.84,ENE,61,0.0,0.0,99,0.00,,,0.00,VWS V14.01,2013-05-23 10:11:00,
2013-05-23 06:16:00,65.8,65.5,29.84,ENE,61,0.0,0.0,99,0.00,,,0.00,VWS V14.01,2013-05-23 10:16:00,
2013-05-23 06:21:00,65.8,65.5,29.84,ENE,61,0.0,0.0,99,0.00,,,0.00,VWS V14.01,2013-05-23 10:21:00,
2013-05-23 06:27:00,65.8,65.5,29.85,ENE,61,0.0,0.0,99,0.00,,,0.00,VWS V14.01,2013-05-23 10:27:00,
2013-05-23 06:32:00,65.8,65.5,29.85,ENE,61,0.0,0.0,99,0.00,,,0.00,VWS V14.01,2013-05-23 10:32:00,
2013-05-23 06:37:00,65.8,65.5,29.85,ENE,61,0.0,0.0,99,0.00,,,0.00,VWS V14.01,2013-05-23 10:37:00,
2013-05-23 06:42:00,65.8,65.5,29.86,ENE,61,0.0,0.0,99,0.00,,,0.00,VWS V14.01,2013-05-23 10:42:00,
2013-05-23 06:47:00,65.8,65.5,29.86,ENE,61,0.0,0.0,99,0.00,,,0.00,VWS V14.01,2013-05-23 10:47:00,
2013-05-23 06:52:00,65.8,65.5,29.86,ENE,61,0.0,0.0,99,0.00,,,0.00,VWS V14.01,2013-05-23 10:52:00,
2013-05-23 06:57:00,65.8,65.5,29.86,ENE,61,0.0,0.0,99,0.00,,,0.00,VWS V14.01,2013-05-23 10:57:00,
2013-05-23 07:02:00,65.8,65.5,29.86,ENE,61,0.0,1.0,99,0.00,,,0.00,VWS V14.01,2013-05-23 11:02:00,
2013-05-23 07:07:00,65.8,65.5,29.87,ENE,61,0.0,1.0,99,0.00,,,0.00,VWS V14.01,2013-05-23 11:07:00,
2013-05-23 07:13:00,65.8,65.5,29.87,SE,140,0.0,1.0,99,0.00,,,0.00,VWS V14.01,2013-05-23 11:13:00,
2013-05-23 07:18:00,65.8,65.5,29.87,SE,138,0.0,1.0,99,0.00,,,0.00,VWS V14.01,2013-05-23 11:18:00,
2013-05-23 07:23:00,65.8,65.2,29.87,SE,143,0.0,1.0,98,0.00,,,0.00,VWS V14.01,2013-05-23 11:23:00,
2013-05-23 07:28:00,65.8,65.2,29.87,SE,143,0.0,1.0,98,0.00,,,0.00,VWS V14.01,2013-05-23 11:28:00,
2013-05-23 07:33:00,65.8,65.2,29.87,SE,143,0.0,0.0,98,0.00,,,0.00,VWS V14.01,2013-05-23 11:33:00,
2013-05-23 07:38:00,65.8,65.2,29.87,SE,143,0.0,0.0,98,0.00,,,0.00,VWS V14.01,2013-05-23 11:38:00,
2013-05-23 07:43:00,65.8,65.2,29.87,SE,143,0.0,0.0,98,0.00,,,0.00,VWS V14.01,2013-05-23 11:43:00,
2013-05-23 07:48:00,65.9,65.3,29.87,SE,143,0.0,0.0,98,0.00,,,0.00,VWS V14.01,2013-05-23 11:48:00,
2013-05-23 07:53:00,65.9,65.3,29.87,SE,143,0.0,0.0,98,0.00,,,0.00,VWS V14.01,2013-05-23 11:53:00,
2013-05-23 07:59:00,66.0,65.7,29.87,SE,143,0.0,0.0,99,0.00,,,0.00,VWS V14.01,2013-05-23 11:59:00,
2013-05-23 08:04:00,66.0,65.7,29.86,SE,143,0.0,0.0,99,0.00,,,0.00,VWS V14.01,2013-05-23 12:04:00,
2013-05-23 08:09:00,66.0,65.7,29.86,SE,143,0.0,0.0,99,0.00,,,0.00,VWS V14.01,2013-05-23 12:09:00,
2013-05-23 08:14:00,66.1,65.8,29.87,SE,143,0.0,0.0,99,0.00,,,0.00,VWS V14.01,2013-05-23 12:14:00,
2013-05-23 08:19:00,66.1,65.8,29.86,SE,143,0.0,0.0,99,0.00,,,0.00,VWS V14.01,2013-05-23 12:19:00,
2013-05-23 08:24:00,66.2,65.9,29.86,SE,143,0.0,0.0,99,0.00,,,0.00,VWS V14.01,2013-05-23 12:24:00,
2013-05-23 08:29:00,66.2,65.6,29.86,SE,143,0.0,0.0,98,0.00,,,0.00,VWS V14.01,2013-05-23 12:29:00,
2013-05-23 08:34:00,66.4,65.8,29.86,SE,143,0.0,0.0,98,0.00,,,0.00,VWS V14.01,2013-05-23 12:34:00,
2013-05-23 08:40:00,66.5,65.9,29.86,SE,143,0.0,0.0,98,0.00,,,0.00,VWS V14.01,2013-05-23 12:40:00,
2013-05-23 08:45:00,66.6,66.0,29.86,SE,143,0.0,0.0,98,0.00,,,0.00,VWS V14.01,2013-05-23 12:45:00,
2013-05-23 08:50:00,66.7,66.1,29.86,SE,143,0.0,0.0,98,0.00,,,0.00,VWS V14.01,2013-05-23 12:50:00,
2013-05-23 08:55:00,66.8,66.5,29.86,SE,143,0.0,1.0,99,0.00,,,0.00,VWS V14.01,2013-05-23 12:55:00,
2013-05-23 09:00:00,66.9,66.3,29.86,SE,143,0.0,1.0,98,0.00,,,0.00,VWS V14.01,2013-05-23 13:00:00,
2013-05-23 09:05:00,67.0,66.4,29.86,SE,143,0.0,0.0,98,0.00,,,0.00,VWS V14.01,2013-05-23 13:05:00,
2013-05-23 09:10:00,67.1,66.5,29.86,SE,143,0.0,0.0,98,0.00,,,0.00,VWS V14.01,2013-05-23 13:10:00,
2013-05-23 09:15:00,67.2,66.6,29.87,SE,143,0.0,0.0,98,0.00,,,0.00,VWS V14.01,2013-05-23 13:15:00,
2013-05-23 09:20:00,67.2,66.6,29.87,SE,143,0.0,1.0,98,0.00,,,0.00,VWS V14.01,2013-05-23 13:20:00,
2013-05-23 09:26:00,67.4,66.8,29.87,SE,143,0.0,1.0,98,0.00,,,0.00,VWS V14.01,2013-05-23 13:26:00,
2013-05-23 09:31:00,67.4,66.8,29.87,SE,143,0.0,0.0,98,0.00,,,0.00,VWS V14.01,2013-05-23 13:31:00,
2013-05-23 09:36:00,67.6,67.0,29.87,SE,143,0.0,0.0,98,0.00,,,0.00,VWS V14.01,2013-05-23 13:36:00,
2013-05-23 09:41:00,67.7,67.1,29.86,SE,143,0.0,0.0,98,0.00,,,0.00,VWS V14.01,2013-05-23 13:41:00,
2013-05-23 09:46:00,67.9,67.3,29.86,SE,143,0.0,0.0,98,0.00,,,0.00,VWS V14.01,2013-05-23 13:46:00,
2013-05-23 09:51:00,68.1,67.5,29.86,SE,143,0.0,0.0,98,0.00,,,0.00,VWS V14.01,2013-05-23 13:51:00,
2013-05-23 09:56:00,68.2,67.3,29.86,SE,143,0.0,0.0,97,0.00,,,0.00,VWS V14.01,2013-05-23 13:56:00,
2013-05-23 10:01:00,68.5,67.6,29.86,SE,143,0.0,0.0,97,0.00,,,0.00,VWS V14.01,2013-05-23 14:01:00,
2013-05-23 10:07:00,69.2,68.6,29.86,SE,143,0.0,1.0,98,0.00,,,0.00,VWS V14.01,2013-05-23 14:07:00,
2013-05-23 10:12:00,69.7,68.8,29.86,SE,143,0.0,2.0,97,0.00,,,0.00,VWS V14.01,2013-05-23 14:12:00,
2013-05-23 10:17:00,70.0,68.8,29.86,South,180,1.0,2.0,96,0.00,,,0.00,VWS V14.01,2013-05-23 14:17:00,
2013-05-23 10:22:00,70.1,68.6,29.86,South,180,0.0,2.0,95,0.00,,,0.00,VWS V14.01,2013-05-23 14:22:00,
2013-05-23 10:27:00,70.2,68.7,29.86,South,180,0.0,2.0,95,0.02,,,0.02,VWS V14.01,2013-05-23 14:27:00,
2013-05-23 10:32:00,70.1,68.6,29.86,South,180,0.0,0.0,95,0.03,,,0.03,VWS V14.01,2013-05-23 14:32:00,
2013-05-23 10:37:00,70.1,68.6,29.86,South,180,0.0,0.0,95,0.05,,,0.06,VWS V14.01,2013-05-23 14:37:00,
2013-05-23 10:42:00,70.2,69.0,29.86,South,180,0.0,0.0,96,0.06,,,0.06,VWS V14.01,2013-05-23 14:42:00,
2013-05-23 10:48:00,70.2,69.0,29.85,South,180,0.0,0.0,96,0.06,,,0.06,VWS V14.01,2013-05-23 14:48:00,
2013-05-23 10:53:00,70.3,69.1,29.86,South,180,0.0,0.0,96,0.07,,,0.07,VWS V14.01,2013-05-23 14:53:00,
2013-05-23 10:58:00,70.4,69.5,29.85,South,180,0.0,0.0,97,0.07,,,0.07,VWS V14.01,2013-05-23 14:58:00,
2013-05-23 11:03:00,70.4,69.2,29.85,South,180,0.0,1.0,96,0.07,,,0.07,VWS V14.01,2013-05-23 15:03:00,
2013-05-23 11:08:00,70.3,69.1,29.85,South,180,0.0,1.0,96,0.07,,,0.07,VWS V14.01,2013-05-23 15:08:00,
2013-05-23 11:13:00,70.4,69.5,29.85,South,180,0.0,1.0,97,0.07,,,0.07,VWS V14.01,2013-05-23 15:13:00,
2013-05-23 11:18:00,70.5,69.6,29.85,South,180,0.0,1.0,97,0.07,,,0.07,VWS V14.01,2013-05-23 15:18:00,
2013-05-23 11:23:00,70.6,69.7,29.85,South,180,0.0,1.0,97,0.07,,,0.07,VWS V14.01,2013-05-23 15:23:00,
2013-05-23 11:28:00,70.6,69.7,29.85,South,180,0.0,1.0,97,0.07,,,0.07,VWS V14.01,2013-05-23 15:28:00,
2013-05-23 11:34:00,70.6,69.7,29.86,South,180,0.0,0.0,97,0.05,,,0.07,VWS V14.01,2013-05-23 15:34:00,
2013-05-23 11:39:00,70.5,69.6,29.85,South,180,0.0,1.0,97,0.05,,,0.07,VWS V14.01,2013-05-23 15:39:00,
2013-05-23 11:44:00,70.5,69.6,29.85,South,180,0.0,1.0,97,0.05,,,0.07,VWS V14.01,2013-05-23 15:44:00,
2013-05-23 11:49:00,70.7,69.8,29.85,South,180,0.0,1.0,97,0.05,,,0.07,VWS V14.01,2013-05-23 15:49:00,
2013-05-23 11:54:00,70.9,70.0,29.85,South,180,0.0,1.0,97,0.05,,,0.07,VWS V14.01,2013-05-23 15:54:00,
2013-05-23 11:59:00,71.1,70.5,29.85,South,180,0.0,1.0,98,0.05,,,0.07,VWS V14.01,2013-05-23 15:59:00,
2013-05-23 12:04:00,71.4,70.8,29.85,South,180,0.0,0.0,98,0.00,,,0.07,VWS V14.01,2013-05-23 16:04:00,
2013-05-23 12:09:00,71.3,70.4,29.85,South,180,0.0,0.0,97,0.00,,,0.07,VWS V14.01,2013-05-23 16:09:00,
2013-05-23 12:15:00,71.3,70.4,29.84,South,180,0.0,0.0,97,0.00,,,0.07,VWS V14.01,2013-05-23 16:15:00,
2013-05-23 12:20:00,71.4,70.5,29.84,South,180,0.0,0.0,97,0.00,,,0.07,VWS V14.01,2013-05-23 16:20:00,
2013-05-23 12:25:00,71.3,70.1,29.83,South,178,0.0,4.0,96,0.00,,,0.07,VWS V14.01,2013-05-23 16:25:00,
2013-05-23 12:30:00,70.8,69.3,29.83,WNW,298,0.0,4.0,95,0.00,,,0.07,VWS V14.01,2013-05-23 16:30:00,
2013-05-23 12:35:00,70.3,68.5,29.83,North,350,0.0,5.0,94,0.01,,,0.08,VWS V14.01,2013-05-23 16:35:00,
2013-05-23 12:40:00,70.0,68.5,29.84,North,350,0.0,5.0,95,0.12,,,0.19,VWS V14.01,2013-05-23 16:40:00,
2013-05-23 12:45:00,69.7,68.2,29.83,ESE,103,0.0,6.0,95,0.33,,,0.40,VWS V14.01,2013-05-23 16:45:00,
2013-05-23 12:50:00,69.3,68.1,29.85,ESE,104,0.0,6.0,96,0.47,,,0.54,VWS V14.01,2013-05-23 16:50:00,
2013-05-23 12:55:00,68.9,67.7,29.84,WSW,253,0.0,6.0,96,0.59,,,0.66,VWS V14.01,2013-05-23 16:55:00,
2013-05-23 13:00:00,68.7,67.5,29.83,WNW,289,0.0,6.0,96,0.63,,,0.70,VWS V14.01,2013-05-23 17:00:00,
2013-05-23 13:05:00,68.5,67.6,29.83,WNW,289,0.0,2.0,97,0.63,,,0.70,VWS V14.01,2013-05-23 17:05:00,
2013-05-23 13:11:00,68.5,67.6,29.84,WNW,289,0.0,2.0,97,0.63,,,0.70,VWS V14.01,2013-05-23 17:11:00,
2013-05-23 13:16:00,68.4,67.5,29.84,WNW,290,0.0,2.0,97,0.65,,,0.72,VWS V14.01,2013-05-23 17:16:00,
2013-05-23 13:21:00,68.4,67.5,29.84,North,355,0.0,5.0,97,0.68,,,0.75,VWS V14.01,2013-05-23 17:21:00,
2013-05-23 13:26:00,68.4,67.8,29.83,North,355,0.0,5.0,98,0.69,,,0.76,VWS V14.01,2013-05-23 17:26:00,
2013-05-23 13:31:00,68.3,67.7,29.84,North,355,0.0,0.0,98,0.70,,,0.77,VWS V14.01,2013-05-23 17:31:00,
2013-05-23 13:36:00,68.3,67.7,29.84,North,355,0.0,0.0,98,0.72,,,0.79,VWS V14.01,2013-05-23 17:36:00,
2013-05-23 13:41:00,68.3,67.7,29.84,North,355,0.0,0.0,98,0.73,,,0.80,VWS V14.01,2013-05-23 17:41:00,
2013-05-23 13:46:00,68.3,67.7,29.84,ENE,76,0.0,1.0,98,0.79,,,0.86,VWS V14.01,2013-05-23 17:46:00,
2013-05-23 13:52:00,68.3,67.7,29.85,ENE,76,0.0,1.0,98,0.88,,,0.95,VWS V14.01,2013-05-23 17:52:00,
2013-05-23 13:57:00,68.2,67.6,29.84,ESE,113,0.0,6.0,98,1.01,,,1.08,VWS V14.01,2013-05-23 17:57:00,
2013-05-23 14:02:00,67.8,67.2,29.84,ENE,61,1.0,3.0,98,0.47,,,1.17,VWS V14.01,2013-05-23 18:02:00,
2013-05-23 14:07:00,67.6,67.0,29.84,ENE,61,0.0,3.0,98,0.50,,,1.20,VWS V14.01,2013-05-23 18:07:00,
2013-05-23 14:12:00,67.4,66.8,29.84,ESE,105,0.0,3.0,98,0.56,,,1.26,VWS V14.01,2013-05-23 18:12:00,
2013-05-23 14:17:00,67.1,66.5,29.84,ESE,105,0.0,3.0,98,0.60,,,1.30,VWS V14.01,2013-05-23 18:17:00,
2013-05-23 14:22:00,66.8,66.2,29.84,ESE,105,0.0,3.0,98,0.68,,,1.38,VWS V14.01,2013-05-23 18:22:00,
2013-05-23 14:28:00,66.6,66.0,29.84,ESE,105,0.0,3.0,98,0.72,,,1.42,VWS V14.01,2013-05-23 18:28:00,
2013-05-23 14:33:00,66.5,65.9,29.84,ESE,105,0.0,0.0,98,0.69,,,1.46,VWS V14.01,2013-05-23 18:33:00,
2013-05-23 14:38:00,66.4,65.8,29.84,ESE,105,0.0,0.0,98,0.69,,,1.46,VWS V14.01,2013-05-23 18:38:00,
2013-05-23 14:43:00,66.5,65.9,29.84,ESE,105,0.0,0.0,98,0.69,,,1.46,VWS V14.01,2013-05-23 18:43:00,
2013-05-23 14:48:00,66.7,66.4,29.83,ESE,105,0.0,0.0,99,0.70,,,1.47,VWS V14.01,2013-05-23 18:48:00,
2013-05-23 14:53:00,67.0,66.7,29.83,ESE,105,0.0,0.0,99,0.71,,,1.48,VWS V14.01,2013-05-23 18:53:00,
2013-05-23 14:58:00,67.2,66.9,29.83,ESE,105,0.0,1.0,99,0.71,,,1.48,VWS V14.01,2013-05-23 18:58:00,
2013-05-23 15:03:00,67.2,66.9,29.83,ESE,105,0.0,0.0,99,0.32,,,1.48,VWS V14.01,2013-05-23 19:03:00,
2013-05-23 15:08:00,67.2,66.9,29.83,ESE,105,0.0,0.0,99,0.32,,,1.48,VWS V14.01,2013-05-23 19:08:00,
2013-05-23 15:13:00,67.1,66.8,29.83,ESE,105,0.0,0.0,99,0.32,,,1.48,VWS V14.01,2013-05-23 19:13:00,
2013-05-23 15:18:00,67.2,66.9,29.83,ESE,105,0.0,0.0,99,0.33,,,1.49,VWS V14.01,2013-05-23 19:18:00,
2013-05-23 15:23:00,67.2,66.9,29.82,ESE,105,0.0,0.0,99,0.34,,,1.50,VWS V14.01,2013-05-23 19:23:00,
2013-05-23 15:29:00,67.1,66.8,29.82,ESE,105,0.0,0.0,99,0.34,,,1.50,VWS V14.01,2013-05-23 19:29:00,
2013-05-23 15:34:00,67.1,66.8,29.82,ESE,105,0.0,0.0,99,0.05,,,1.50,VWS V14.01,2013-05-23 19:34:00,
2013-05-23 15:39:00,67.1,66.8,29.82,ESE,105,0.0,0.0,99,0.05,,,1.50,VWS V14.01,2013-05-23 19:39:00,
2013-05-23 15:44:00,67.1,66.8,29.82,ESE,105,0.0,0.0,99,0.06,,,1.51,VWS V14.01,2013-05-23 19:44:00,
2013-05-23 15:49:00,67.1,66.8,29.81,ESE,105,0.0,0.0,99,0.06,,,1.51,VWS V14.01,2013-05-23 19:49:00,
2013-05-23 15:54:00,67.0,66.7,29.81,ESE,105,0.0,0.0,99,0.07,,,1.52,VWS V14.01,2013-05-23 19:54:00,
2013-05-23 15:59:00,67.0,66.7,29.81,ESE,113,0.0,0.0,99,0.07,,,1.52,VWS V14.01,2013-05-23 19:59:00,
2013-05-23 16:04:00,66.7,66.4,29.81,SE,136,0.0,1.0,99,0.04,,,1.52,VWS V14.01,2013-05-23 20:04:00,
2013-05-23 16:09:00,66.7,66.4,29.81,SE,136,0.0,1.0,99,0.06,,,1.54,VWS V14.01,2013-05-23 20:09:00,
2013-05-23 16:14:00,66.5,65.9,29.81,SE,136,0.0,1.0,98,0.06,,,1.54,VWS V14.01,2013-05-23 20:14:00,
2013-05-23 16:20:00,66.5,65.9,29.81,WSW,240,0.0,1.0,98,0.07,,,1.55,VWS V14.01,2013-05-23 20:20:00,
2013-05-23 16:25:00,66.5,66.2,29.81,WSW,240,0.0,1.0,99,0.10,,,1.58,VWS V14.01,2013-05-23 20:25:00,
2013-05-23 16:30:00,66.6,66.3,29.80,WSW,240,0.0,1.0,99,0.16,,,1.64,VWS V14.01,2013-05-23 20:30:00,
2013-05-23 16:35:00,66.5,66.2,29.81,WSW,240,0.0,0.0,99,0.16,,,1.66,VWS V14.01,2013-05-23 20:35:00,
2013-05-23 16:40:00,66.5,66.2,29.80,WSW,240,0.0,0.0,99,0.19,,,1.69,VWS V14.01,2013-05-23 20:40:00,
2013-05-23 16:45:00,66.5,66.2,29.80,WSW,240,0.0,1.0,99,0.20,,,1.70,VWS V14.01,2013-05-23 20:45:00,
2013-05-23 16:50:00,66.5,66.2,29.81,WSW,240,0.0,1.0,99,0.24,,,1.74,VWS V14.01,2013-05-23 20:50:00,
2013-05-23 16:55:00,66.4,66.1,29.81,WSW,240,0.0,1.0,99,0.27,,,1.77,VWS V14.01,2013-05-23 20:55:00,
2013-05-23 17:00:00,66.3,66.0,29.81,WSW,240,0.0,1.0,99,0.30,,,1.80,VWS V14.01,2013-05-23 21:00:00,
2013-05-23 17:05:00,66.2,65.9,29.82,WSW,240,0.0,0.0,99,0.30,,,1.82,VWS V14.01,2013-05-23 21:05:00,
2013-05-23 17:11:00,66.1,65.8,29.80,WSW,240,0.0,0.0,99,0.30,,,1.82,VWS V14.01,2013-05-23 21:11:00,
2013-05-23 17:16:00,66.0,65.7,29.81,WSW,240,0.0,0.0,99,0.30,,,1.82,VWS V14.01,2013-05-23 21:16:00,
2013-05-23 17:21:00,65.9,65.6,29.81,WSW,240,0.0,0.0,99,0.30,,,1.82,VWS V14.01,2013-05-23 21:21:00,
2013-05-23 17:26:00,65.9,65.6,29.81,WSW,240,0.0,1.0,99,0.30,,,1.82,VWS V14.01,2013-05-23 21:26:00,
2013-05-23 17:31:00,65.9,65.6,29.81,WSW,240,0.0,1.0,99,0.18,,,1.82,VWS V14.01,2013-05-23 21:31:00,
2013-05-23 17:36:00,65.9,65.6,29.81,WSW,240,0.0,1.0,99,0.18,,,1.82,VWS V14.01,2013-05-23 21:36:00,
2013-05-23 17:41:00,65.8,65.5,29.81,WSW,240,0.0,1.0,99,0.18,,,1.82,VWS V14.01,2013-05-23 21:41:00,
2013-05-23 17:46:00,65.8,65.5,29.81,WSW,240,0.0,1.0,99,0.18,,,1.82,VWS V14.01,2013-05-23 21:46:00,
2013-05-23 17:52:00,65.8,65.5,29.82,WSW,240,0.0,1.0,99,0.18,,,1.82,VWS V14.01,2013-05-23 21:52:00,
2013-05-23 17:57:00,65.8,65.5,29.82,WSW,240,0.0,1.0,99,0.18,,,1.82,VWS V14.01,2013-05-23 21:57:00,
2013-05-23 18:02:00,65.8,65.5,29.81,SW,226,0.0,0.0,99,0.02,,,1.82,VWS V14.01,2013-05-23 22:02:00,
2013-05-23 18:07:00,65.8,65.5,29.81,SW,226,0.0,0.0,99,0.02,,,1.82,VWS V14.01,2013-05-23 22:07:00,
2013-05-23 18:12:00,65.8,65.5,29.82,SW,226,0.0,0.0,99,0.02,,,1.82,VWS V14.01,2013-05-23 22:12:00,
2013-05-23 18:17:00,65.8,65.5,29.82,SW,226,0.0,0.0,99,0.02,,,1.82,VWS V14.01,2013-05-23 22:17:00,
2013-05-23 18:22:00,65.8,65.5,29.82,SW,226,0.0,0.0,99,0.02,,,1.82,VWS V14.01,2013-05-23 22:22:00,
2013-05-23 18:27:00,65.8,65.5,29.82,SW,226,0.0,0.0,99,0.02,,,1.82,VWS V14.01,2013-05-23 22:27:00,
2013-05-23 18:33:00,65.8,65.5,29.82,SW,226,0.0,0.0,99,0.00,,,1.82,VWS V14.01,2013-05-23 22:33:00,
2013-05-23 18:38:00,65.8,65.5,29.82,SW,226,0.0,0.0,99,0.00,,,1.82,VWS V14.01,2013-05-23 22:38:00,
2013-05-23 18:43:00,65.8,65.5,29.81,SW,226,0.0,0.0,99,0.00,,,1.82,VWS V14.01,2013-05-23 22:43:00,
2013-05-23 18:48:00,65.8,65.5,29.81,SW,226,0.0,0.0,99,0.00,,,1.82,VWS V14.01,2013-05-23 22:48:00,
2013-05-23 18:53:00,65.8,65.5,29.82,SW,226,0.0,1.0,99,0.00,,,1.82,VWS V14.01,2013-05-23 22:53:00,
2013-05-23 18:58:00,65.7,65.4,29.82,SW,225,0.0,1.0,99,0.00,,,1.82,VWS V14.01,2013-05-23 22:58:00,
2013-05-23 19:03:00,65.6,65.3,29.81,SW,225,0.0,0.0,99,0.00,,,1.82,VWS V14.01,2013-05-23 23:03:00,
2013-05-23 19:08:00,65.6,65.3,29.80,SW,225,0.0,0.0,99,0.00,,,1.82,VWS V14.01,2013-05-23 23:08:00,
2013-05-23 19:14:00,65.5,65.2,29.80,SW,225,0.0,0.0,99,0.00,,,1.82,VWS V14.01,2013-05-23 23:14:00,
2013-05-23 19:19:00,65.5,65.2,29.80,SW,225,0.0,0.0,99,0.00,,,1.82,VWS V14.01,2013-05-23 23:19:00,
2013-05-23 19:24:00,65.5,65.2,29.80,SW,225,0.0,0.0,99,0.00,,,1.82,VWS V14.01,2013-05-23 23:24:00,
2013-05-23 19:29:00,65.5,65.2,29.80,SW,225,0.0,0.0,99,0.00,,,1.82,VWS V14.01,2013-05-23 23:29:00,
2013-05-23 19:34:00,65.5,65.2,29.80,SW,225,0.0,0.0,99,0.00,,,1.82,VWS V14.01,2013-05-23 23:34:00,
2013-05-23 19:39:00,65.5,65.2,29.80,SW,225,0.0,1.0,99,0.00,,,1.82,VWS V14.01,2013-05-23 23:39:00,
2013-05-23 19:44:00,65.4,65.1,29.80,SW,225,0.0,1.0,99,0.00,,,1.82,VWS V14.01,2013-05-23 23:44:00,
2013-05-23 19:49:00,65.4,65.1,29.80,SW,232,0.0,1.0,99,0.00,,,1.82,VWS V14.01,2013-05-23 23:49:00,
2013-05-23 19:54:00,65.4,65.1,29.80,SW,232,0.0,1.0,99,0.00,,,1.82,VWS V14.01,2013-05-23 23:54:00,
2013-05-23 20:00:00,65.3,65.0,29.80,SW,232,0.0,1.0,99,0.00,,,1.82,VWS V14.01,2013-05-24 00:00:00,
2013-05-23 20:05:00,65.3,65.0,29.80,SW,232,0.0,0.0,99,0.00,,,1.82,VWS V14.01,2013-05-24 00:05:00,
2013-05-23 20:10:00,65.3,65.0,29.80,SW,232,0.0,0.0,99,0.00,,,1.82,VWS V14.01,2013-05-24 00:10:00,
2013-05-23 20:15:00,65.2,64.9,29.80,SW,232,0.0,0.0,99,0.00,,,1.82,VWS V14.01,2013-05-24 00:15:00,
2013-05-23 20:20:00,65.2,64.9,29.80,SW,232,0.0,1.0,99,0.00,,,1.82,VWS V14.01,2013-05-24 00:20:00,
2013-05-23 20:25:00,65.2,64.9,29.80,SSW,211,0.0,2.0,99,0.00,,,1.82,VWS V14.01,2013-05-24 00:25:00,
2013-05-23 20:30:00,65.2,64.9,29.80,SSW,211,0.0,2.0,99,0.00,,,1.82,VWS V14.01,2013-05-24 00:30:00,
2013-05-23 20:36:00,65.2,64.9,29.80,WNW,294,0.0,3.0,99,0.00,,,1.82,VWS V14.01,2013-05-24 00:36:00,
2013-05-23 20:41:00,65.1,64.8,29.80,WNW,294,0.0,3.0,99,0.00,,,1.82,VWS V14.01,2013-05-24 00:41:00,
2013-05-23 20:46:00,65.1,64.8,29.80,WNW,294,0.0,3.0,99,0.00,,,1.82,VWS V14.01,2013-05-24 00:46:00,
2013-05-23 20:51:00,65.0,64.7,29.79,WNW,294,0.0,3.0,99,0.00,,,1.82,VWS V14.01,2013-05-24 00:51:00,
2013-05-23 20:56:00,65.0,64.7,29.79,WNW,294,0.0,3.0,99,0.00,,,1.82,VWS V14.01,2013-05-24 00:56:00,
2013-05-23 21:01:00,65.0,64.7,29.79,WNW,294,0.0,1.0,99,0.00,,,1.82,VWS V14.01,2013-05-24 01:01:00,
2013-05-23 21:06:00,65.0,64.7,29.79,WNW,294,0.0,1.0,99,0.00,,,1.82,VWS V14.01,2013-05-24 01:06:00,
2013-05-23 21:11:00,65.0,64.7,29.79,WNW,292,0.0,1.0,99,0.00,,,1.82,VWS V14.01,2013-05-24 01:11:00,
2013-05-23 21:16:00,65.0,64.7,29.79,WNW,292,0.0,1.0,99,0.00,,,1.82,VWS V14.01,2013-05-24 01:16:00,
2013-05-23 21:22:00,65.0,64.7,29.79,WSW,238,0.0,1.0,99,0.00,,,1.82,VWS V14.01,2013-05-24 01:22:00,
2013-05-23 21:27:00,64.9,64.6,29.79,WSW,238,0.0,1.0,99,0.00,,,1.82,VWS V14.01,2013-05-24 01:27:00,
2013-05-23 21:32:00,64.9,64.6,29.79,WSW,238,0.0,0.0,99,0.00,,,1.82,VWS V14.01,2013-05-24 01:32:00,
2013-05-23 21:37:00,64.9,64.6,29.78,WSW,238,0.0,0.0,99,0.00,,,1.82,VWS V14.01,2013-05-24 01:37:00,
2013-05-23 21:42:00,64.8,64.5,29.78,WSW,238,0.0,0.0,99,0.00,,,1.82,VWS V14.01,2013-05-24 01:42:00,
2013-05-23 21:47:00,64.8,64.5,29.78,WSW,238,0.0,0.0,99,0.00,,,1.82,VWS V14.01,2013-05-24 01:47:00,
2013-05-23 21:52:00,64.8,64.5,29.78,WSW,238,0.0,0.0,99,0.00,,,1.82,VWS V14.01,2013-05-24 01:52:00,
2013-05-23 21:57:00,64.8,64.5,29.78,WSW,238,0.0,0.0,99,0.00,,,1.82,VWS V14.01,2013-05-24 01:57:00,
2013-05-23 22:03:00,64.8,64.5,29.77,ENE,59,0.0,0.0,99,0.00,,,1.82,VWS V14.01,2013-05-24 02:03:00,
2013-05-23 22:08:00,64.7,64.4,29.77,ENE,60,0.0,1.0,99,0.00,,,1.82,VWS V14.01,2013-05-24 02:08:00,
2013-05-23 22:13:00,64.7,64.4,29.77,ENE,60,0.0,1.0,99,0.00,,,1.82,VWS V14.01,2013-05-24 02:13:00,
2013-05-23 22:18:00,64.6,64.3,29.77,SE,141,0.0,4.0,99,0.00,,,1.82,VWS V14.01,2013-05-24 02:18:00,
2013-05-23 22:23:00,64.6,64.3,29.77,South,178,0.0,4.0,99,0.00,,,1.82,VWS V14.01,2013-05-24 02:23:00,
2013-05-23 22:28:00,64.6,64.3,29.77,South,178,0.0,4.0,99,0.00,,,1.82,VWS V14.01,2013-05-24 02:28:00,
2013-05-23 22:33:00,64.5,64.2,29.77,NE,49,0.0,1.0,99,0.00,,,1.82,VWS V14.01,2013-05-24 02:33:00,
2013-05-23 22:38:00,64.5,64.2,29.77,NE,51,0.0,2.0,99,0.00,,,1.82,VWS V14.01,2013-05-24 02:38:00,
2013-05-23 22:44:00,64.5,64.2,29.77,NE,51,0.0,2.0,99,0.00,,,1.82,VWS V14.01,2013-05-24 02:44:00,
2013-05-23 22:49:00,64.5,64.2,29.77,NE,47,0.0,2.0,99,0.00,,,1.82,VWS V14.01,2013-05-24 02:49:00,
2013-05-23 22:54:00,64.5,64.2,29.77,SE,137,0.0,2.0,99,0.00,,,1.82,VWS V14.01,2013-05-24 02:54:00,
2013-05-23 22:59:00,64.5,64.2,29.76,SE,137,0.0,2.0,99,0.00,,,1.82,VWS V14.01,2013-05-24 02:59:00,
2013-05-23 23:04:00,64.4,64.1,29.76,SW,225,1.0,2.0,99,0.00,,,1.82,VWS V14.01,2013-05-24 03:04:00,
2013-05-23 23:09:00,64.5,64.2,29.76,SW,225,0.0,2.0,99,0.00,,,1.82,VWS V14.01,2013-05-24 03:09:00,
2013-05-23 23:14:00,64.5,64.2,29.75,SW,233,0.0,2.0,99,0.00,,,1.82,VWS V14.01,2013-05-24 03:14:00,
2013-05-23 23:19:00,64.4,64.1,29.75,SSE,147,0.0,2.0,99,0.00,,,1.82,VWS V14.01,2013-05-24 03:19:00,
2013-05-23 23:25:00,64.5,64.2,29.75,SSW,209,0.0,2.0,99,0.00,,,1.82,VWS V14.01,2013-05-24 03:25:00,
2013-05-23 23:30:00,64.5,64.2,29.74,SSW,206,0.0,5.0,99,0.00,,,1.82,VWS V14.01,2013-05-24 03:30:00,
2013-05-23 23:35:00,64.4,64.1,29.74,SW,215,0.0,2.0,99,0.00,,,1.82,VWS V14.01,2013-05-24 03:35:00,
2013-05-23 23:40:00,64.5,64.2,29.74,East,98,0.0,2.0,99,0.00,,,1.82,VWS V14.01,2013-05-24 03:40:00,
2013-05-23 23:45:00,64.4,64.1,29.74,East,98,0.0,2.0,99,0.00,,,1.82,VWS V14.01,2013-05-24 03:45:00,
2013-05-23 23:50:00,64.4,64.4,29.74,East,98,0.0,2.0,100,0.00,,,1.82,VWS V14.01,2013-05-24 03:50:00,
2013-05-23 23:55:00,64.4,64.1,29.74,SSE,157,0.0,2.0,99,0.00,,,1.82,VWS V14.01,2013-05-24 03:55:00,